Location: Ciserano
(45.5833°N, 9.6000°E)
Time: 17:28:59
(UTC+00:00)

Milstar 3 Cent rocket - Visible Passes

Search period start: 16 April 2021 00:00
Search period end: 26 April 2021 00:00
Orbit: 705 x 5148 km, 28.3° (Epoch: 16 April)

Date Brightness Start Highest point End Pass type
(mag) Time Alt. Az. Time Alt. Az. Time Alt. Az.
16 Apr 5.8 20:06:41 10° W 20:36:26 48° SSW 20:51:01 29° SSE visible
16 Apr 6.1 22:57:59 10° W 23:18:55 24° SW 23:19:50 24° SW visible
17 Apr 6.3 18:14:57 10° WSW 18:43:05 54° S 19:10:15 11° ESE visible
17 Apr 5.9 21:00:50 10° W 21:29:04 40° SSW 21:39:03 32° S visible
17 Apr 6.5 23:57:46 10° W 00:07:51 14° WSW 00:07:51 14° WSW visible
18 Apr 6.1 19:07:42 10° WSW 19:36:38 51° SSW 19:58:16 20° SE visible
18 Apr 6.0 21:56:01 10° W 22:21:00 31° SW 22:27:04 28° SSW visible
19 Apr 6.0 20:01:05 10° W 20:29:47 45° SSW 20:46:18 26° SSE visible
19 Apr 6.3 22:53:12 10° W 23:12:15 21° SW 23:15:06 20° SW visible
20 Apr 6.4 18:09:40 10° WSW 18:36:30 52° S 19:05:18 10° ESE visible
20 Apr 6.0 20:55:18 10° W 21:22:20 36° SW 21:34:19 27° S visible
20 Apr 6.6 23:57:27 10° WSW 00:03:01 11° WSW 00:03:08 11° WSW visible
21 Apr 6.2 19:02:23 10° W 19:29:58 48° SSW 19:53:33 17° SE visible
21 Apr 6.2 21:50:53 10° W 22:14:12 27° SW 22:22:21 23° SSW visible
22 Apr 6.2 19:55:47 10° W 20:23:02 41° SSW 20:41:36 22° SSE visible
22 Apr 6.5 22:49:30 10° W 23:05:30 17° SW 23:10:25 16° SW visible
23 Apr 6.4 18:04:38 10° WSW 18:29:58 50° SSW 18:59:20 10° SE visible
23 Apr 6.2 20:50:11 10° W 21:15:30 32° SW 21:29:40 22° S visible
24 Apr 6.4 18:57:21 10° W 19:23:19 45° SSW 19:48:55 13° SE visible
24 Apr 6.4 21:46:28 10° W 22:07:22 22° SW 22:17:44 18° SSW visible
25 Apr 6.4 19:50:49 10° W 20:16:15 37° SSW 20:37:01 17° SSE visible
25 Apr 6.7 22:48:07 10° WSW 22:58:46 13° SW 23:05:50 11° SW visible
